Location: Unspecified
(0.0000°N, 0.0000°E)
Time: 13:32:42
(UTC+00:00)

deb r/b Ablestar - Pass Details

Date: 11 November 2025
Orbit: 783 x 881 km, 66.7° (Epoch: 13 December)

Event Time Altitude Azimuth Distance (km) Brightness Sun altitude
Exits shadow 04:40:48 - 346° (NNW) 3,094 ? -15.1°
Reaches altitude 10° 04:42:48 10° 349° (N) 2,328 ? -14.6°
Maximum altitude 04:48:05 65° 71° (ENE) 861 ? -13.3°
Drops below altitude 10° 04:53:25 10° 152° (SSE) 2,362 ? -12.1°
Sets 04:55:53 0° 155° (SSE) 3,305 ? -11.5°
